Regional Weather Roundup
Issued by NWS Kansas City/Pleasant Hill, MO

Home | Current Version | Previous Version | Text Only | Print | Product List | Glossary On
Versions: 1 2 3 4 5 6 7 8 9 10 11 12 13 14 15 16 17 18 19 20 21 22 23 24 25 26 27 28 29 30 31 32 33 34 35 36 37 38 39 40 41 42 43 44 45 46 47 48 49 50
000
ASUS43 KEAX 030904
RWREAX

WEATHER ROUNDUP FOR EASTERN KANSAS AND NORTHWEST MISSOURI
NATIONAL WEATHER SERVICE KANSAS CITY/PLEASANT HILL MO
400 AM CDT WED JUN 03 2015

KSZ040-057-103>105-MOZ028-029-037-043-031000-
...KANSAS CITY METROPOLITAN AREA...

CITY           SKY/WX    TMP DP  RH WIND       PRES   REMARKS
K.C. INTL      LGT RAIN  64  61  90 SE10      29.92F
K.C. DOWNTOWN  CLOUDY    67  58  72 SE6       29.92F
LEES SUMMIT    PTCLDY    64  58  80 SE7       29.94F
OLATHE - IXD   PTCLDY    65  61  87 SE10      29.92F
OLATHE - OJC   PTCLDY    65  60  84 S10       29.92F
LAWRENCE       MOCLDY    64  60  87 SE6       29.91F

$$

MOZ001>008-011>017-020>025-030>033-038>040-044>046-053-054-031000-
...NORTHERN AND CENTRAL MISSOURI...

CITY           SKY/WX    TMP DP  RH WIND       PRES   REMARKS
ST. JOSEPH     PTCLDY    64  59  83 S9        29.90F
MOSBY          PTSUNNY   63  59  88 SE6       29.94F THUNDER
HARRISONVILLE  CLOUDY    66  61  82 SE6       29.97F
WARRENSBURG    CLOUDY    61  57  88 SE5       29.95F
WHITEMAN AFB   MOCLDY    62  58  88 S9        29.95F
CLINTON        CLOUDY    64  61  88 SE6       29.97S
SEDALIA        CLOUDY    62  57  83 SE10      29.99F
WARSAW         FAIR      59  59 100 SE7       29.99S
CHILLICOTHE      N/A     63  57  81 SE7       29.97F
MOBERLY        PTCLDY    59  54  82 SE5       30.01F
KIRKSVILLE     PTCLDY    57  56  96 S7        30.00F

$$

MOZ041-047>049-056>058-063>065-088>090-097-031000-
...EASTERN AND SOUTHERN MISSOURI...

CITY           SKY/WX    TMP DP  RH WIND       PRES   REMARKS
ST. LOUIS INTL PTCLDY    60  54  80 S3        30.04R
SPIRIT OF STL  CLOUDY    57  56  96 CALM      30.02S
COLUMBIA       CLOUDY    57  55  93 SE7       30.01F
JEFFERSON CITY MOCLDY    57  55  93 SE3       30.01F
MEXICO         PTCLDY   N/A N/A N/A SE5       30.02F
ROLLA          PTCLDY    55  54  96 S7        30.01S
LEBANON        CLOUDY    57  55  94 S9        30.01S
OSAGE BEACH    MOCLDY    57  54  88 S6        30.01S
SPRINGFIELD    CLOUDY    62  59  90 S12       29.99S
BRANSON        CLOUDY    61  59  94 CALM      30.03S
NEVADA         PTCLDY    64  61  88 SE6       29.97S
JOPLIN         CLEAR     67  64  90 SE8       29.96S
WEST PLAINS    CLOUDY    56  53  90 CALM      30.05S

$$

IAZ060-094-KSZ022-034>040-054-083-096-NEZ052-066-093-031000-
...KANSAS...SOUTHEAST NEBRASKA AND IOWA...

CITY           SKY/WX    TMP DP  RH WIND       PRES   REMARKS
TOPEKA         PTCLDY    67  64  90 SE7       29.89F
MANHATTAN      PTCLDY    71  67  87 S6        29.85F
EMPORIA        CLEAR     68  65  90 S10       29.89F
CHANUTE        CLEAR     68  67  96 SE8       29.92F
WICHITA        PTCLDY    71  65  81 S14       29.86F
OMAHA          CLOUDY    65  58  78 SE13      29.86F
LINCOLN        TSTM      63  61  93 N20G26    29.91R FOG
FALLS CITY     CLEAR     64  59  83 SE9       29.87F
LAMONI         PTCLDY    62  56  80 SE9       29.94F
DES MOINES     MOCLDY    61  55  81 S8        29.94F

$$



USA.gov is the U.S. government's official web portal to all federal, state and local government web resources and services.